Vorticity
nan nan nan nan nan nan nan nan nan nan nan nan nan nan nan nan nan nan nan nan nan nan nan nan nan nan nan nan nan nan nan nan nan nan nan nan nan nan nan nan nan nan nan nan nan nan nan nan nan nan nan nan nan nan nan nan nan nan nan nan nan nan nan nan nan nan nan nan nan nan nan nan nan nan nan nan nan nan nan nan nan nan nan nan nan nan
nan 9 10 11 9 8 10 11 9 8 8 7 7 7 6 5 5 6 7 8 9 11 13 16 16 16 16 17 18 14 10 8 8 8 7 7 7 6 6 5 5 5 6 7 8 10 12 14 16 17 18 19 19 19 18 18 18 19 21 23 24 24 22 18 14 11 9 7 6 6 6 6 6 6 6 7 6 6 6 6 6 6 6 6 7 nan
nan 8 10 10 9 8 10 12 11 11 11 10 10 9 8 6 4 6 7 8 9 9 11 14 17 17 15 17 19 15 10 8 8 8 7 7 6 6 6 5 5 5 6 7 9 11 13 15 16 17 18 18 18 18 18 17 16 17 17 18 18 18 16 14 12 11 10 8 7 7 7 7 7 7 7 7 7 7 6 6 6 6 6 7 7 nan
nan 9 10 10 10 9 10 12 12 12 12 12 12 11 9 7 6 6 7 9 9 9 9 12 16 17 15 16 20 18 13 8 8 7 7 6 6 6 5 5 5 5 6 7 8 10 11 11 11 11 12 12 12 11 11 11 10 10 10 9 9 9 9 8 8 8 8 8 7 7 7 7 7 7 7 7 7 7 6 6 6 6 6 7 7 nan
nan 11 11 10 9 9 10 11 11 11 11 11 11 10 10 9 8 7 8 9 9 9 9 11 14 17 16 17 22 22 16 10 8 7 7 6 6 5 5 5 5 6 6 7 8 8 8 8 7 7 7 7 7 6 6 6 6 6 6 5 5 5 5 5 5 5 6 6 6 6 6 6 6 7 7 7 7 7 6 6 6 6 6 6 7 nan
nan 12 11 10 9 8 9 11 11 9 7 7 8 9 9 9 9 9 9 8 9 9 9 10 11 15 17 19 23 21 15 11 8 7 7 6 6 5 5 6 6 7 7 7 8 7 6 6 5 5 5 5 5 5 5 5 5 5 5 5 5 5 5 5 5 5 5 5 6 6 6 6 6 6 7 7 7 7 7 7 7 6 6 6 6 nan
nan 11 10 9 9 8 9 10 10 9 7 6 6 7 8 9 9 9 9 9 9 8 9 10 11 13 16 20 21 18 13 10 7 6 6 6 5 5 6 6 7 7 8 8 8 7 6 5 5 5 5 5 5 5 5 5 5 5 5 5 5 5 5 5 5 5 5 5 5 6 6 6 6 7 7 7 8 8 8 8 8 8 7 7 7 nan
nan 7 7 8 8 8 9 9 10 9 9 8 7 6 7 7 7 8 9 9 9 9 9 10 11 11 12 16 17 15 11 8 7 6 7 6 6 6 7 7 7 8 8 9 8 8 7 6 5 5 5 5 5 5 5 5 5 5 5 6 5 5 5 5 5 5 5 5 6 6 6 7 7 7 7 8 8 9 9 10 10 10 9 9 9 nan
nan 6 7 7 7 8 8 9 9 9 10 11 10 8 7 6 7 7 7 7 8 9 10 10 9 8 8 11 14 14 12 9 9 9 9 8 10 11 12 10 9 9 9 9 9 8 7 6 6 6 5 5 5 5 6 6 6 6 6 6 6 5 5 5 5 5 5 6 6 6 7 7 7 8 8 8 8 9 10 11 11 11 11 11 11 nan
nan 9 8 7 7 8 10 10 9 9 12 13 12 10 9 8 7 7 6 6 6 8 10 11 10 8 7 9 12 14 13 12 13 12 11 10 11 12 12 11 11 14 13 10 9 8 7 7 6 6 6 6 6 6 7 7 6 6 6 6 6 5 5 5 5 5 5 6 6 6 7 7 7 8 8 8 8 8 9 10 11 12 12 12 12 nan
nan 12 10 8 7 9 11 11 11 10 11 12 10 10 10 11 10 9 7 5 6 6 8 10 10 9 8 8 10 11 11 11 12 13 12 11 10 10 9 9 12 15 14 11 10 9 8 7 6 6 6 7 7 7 7 6 6 6 5 5 5 4 5 5 5 5 5 6 6 6 7 7 7 8 8 8 8 8 9 9 10 10 11 12 13 nan
nan 12 11 9 8 8 9 10 11 11 11 9 8 8 9 10 10 11 9 8 7 7 6 7 9 10 9 9 9 9 9 9 9 10 12 12 11 9 9 11 13 13 12 11 10 9 8 7 6 6 6 8 8 7 6 6 6 5 4 4 3 3 4 5 5 6 6 6 6 6 7 7 7 7 8 8 8 8 8 9 9 9 10 11 12 nan
nan 11 10 10 8 7 7 8 9 10 9 8 8 8 9 9 10 10 11 11 10 9 8 7 7 8 9 10 10 10 10 9 9 9 11 11 10 9 9 11 11 11 11 10 11 14 14 10 7 7 7 8 8 8 6 6 6 4 3 3 2 3 4 5 5 6 7 7 6 7 6 7 7 7 8 8 8 9 9 9 8 8 9 10 11 nan
nan 9 9 8 8 7 7 8 8 8 8 8 8 10 12 12 12 10 10 11 10 10 10 8 7 6 7 9 11 12 12 9 8 9 10 10 10 10 10 10 10 9 10 10 12 15 14 10 10 13 11 8 8 8 6 5 4 3 2 2 2 3 4 5 7 7 8 8 7 7 7 7 7 7 8 8 9 9 9 9 9 9 9 9 10 nan
nan 9 7 7 7 8 9 9 9 8 8 8 9 10 12 13 12 10 9 9 9 9 8 7 6 6 7 8 9 12 12 10 8 9 9 7 7 9 12 11 9 9 9 10 10 12 9 7 9 13 15 13 10 10 8 5 5 4 2 2 2 3 5 6 8 9 9 9 8 8 7 7 7 8 8 9 9 9 9 9 9 9 8 9 9 nan
nan 9 9 7 7 8 9 10 9 9 10 10 11 10 9 10 10 10 8 8 8 8 7 7 6 6 8 9 9 11 11 11 9 10 8 5 5 7 12 13 10 8 9 10 9 9 7 7 10 11 16 18 14 11 6 4 4 4 2 2 3 4 6 8 9 10 10 10 9 8 7 7 7 8 9 9 10 10 10 10 9 9 8 8 9 nan
nan 9 9 9 8 8 10 11 10 10 11 11 11 10 9 9 9 10 9 8 8 8 8 7 6 6 9 10 11 11 12 11 11 10 8 6 4 6 11 14 12 9 8 9 9 9 8 7 9 11 17 19 14 9 5 4 4 3 3 3 4 5 6 8 10 11 11 11 9 8 7 7 8 8 9 10 10 10 10 10 9 9 8 8 9 nan
nan 10 10 9 9 10 11 11 10 10 10 10 10 10 9 10 10 11 10 9 8 8 8 7 5 6 9 11 13 14 12 10 11 10 8 7 5 5 9 14 14 12 10 8 9 9 9 8 10 12 19 19 12 8 6 5 4 4 4 4 5 6 8 9 11 12 12 10 9 8 7 8 8 9 9 9 10 10 10 10 9 9 8 8 8 nan
nan 10 9 9 9 10 11 11 10 9 9 9 10 11 10 9 10 10 9 8 9 9 9 7 6 5 6 10 14 16 12 9 10 10 9 8 6 5 7 12 13 13 11 9 8 9 10 12 15 17 17 15 11 9 7 6 5 5 4 5 6 7 8 10 11 12 12 10 9 8 8 8 8 9 9 9 9 9 9 9 9 8 8 8 8 nan
nan 9 8 9 10 11 11 11 11 10 10 10 10 10 10 11 10 9 9 8 8 7 8 9 9 8 7 11 14 16 12 9 9 9 10 9 8 6 8 11 11 10 9 7 8 9 10 12 16 20 18 14 11 9 7 7 6 6 6 6 7 8 9 11 11 12 11 9 8 8 8 9 9 9 9 8 8 8 8 8 8 8 8 8 8 nan
nan 10 10 8 9 9 11 14 14 13 12 10 9 8 9 10 10 9 9 10 9 9 9 9 9 9 9 12 15 15 12 7 6 6 8 8 8 8 9 10 10 9 7 6 8 10 10 10 12 18 21 17 12 9 7 7 7 7 7 8 8 9 10 11 11 11 10 9 8 8 8 9 9 9 9 8 8 8 8 8 8 7 7 7 7 nan
nan 11 13 10 8 9 12 16 17 16 13 9 5 5 9 11 10 9 10 11 11 11 10 9 9 9 12 16 18 17 11 6 6 5 7 8 8 8 10 11 11 9 6 6 7 9 10 10 12 16 20 16 11 8 8 8 8 9 9 9 10 10 10 11 11 10 10 9 8 8 9 9 9 9 9 9 8 8 8 7 7 7 7 7 7 nan
nan 10 13 13 11 11 13 15 16 16 12 8 5 4 10 14 12 12 12 11 11 11 11 11 11 10 13 18 19 17 11 7 8 8 9 9 8 9 10 12 11 9 6 6 8 10 10 10 11 14 20 18 10 8 9 9 9 10 10 10 10 10 10 11 11 10 9 9 8 8 9 9 9 9 9 9 9 8 8 7 7 7 7 7 8 nan
nan 9 10 13 14 14 14 14 14 14 11 9 9 10 13 14 15 15 15 14 13 12 10 9 8 9 12 15 15 13 9 9 11 11 10 10 10 11 12 13 11 9 6 7 10 11 10 8 9 10 20 23 15 11 10 10 10 10 11 10 10 10 10 10 10 10 9 9 8 8 8 9 9 8 8 9 8 8 8 7 7 7 7 7 8 nan
nan 10 11 13 15 16 16 16 16 14 11 10 10 11 13 14 13 13 13 13 13 12 10 7 6 7 10 11 10 8 5 8 13 14 11 10 10 12 12 13 12 10 7 7 10 11 10 8 8 9 16 24 22 16 11 10 10 11 10 10 10 10 10 10 10 10 9 9 8 8 8 8 8 8 8 8 8 8 7 7 7 7 7 7 7 nan
nan 11 11 13 15 16 18 18 18 15 8 5 7 9 10 10 9 8 8 9 10 9 7 5 5 6 8 9 9 8 7 6 10 13 13 12 11 10 10 12 13 12 9 8 10 11 10 9 8 9 12 20 24 20 14 11 11 10 10 10 10 9 10 10 10 10 10 9 8 8 8 8 8 8 8 8 8 8 7 7 7 7 7 7 7 nan
nan 10 9 9 11 13 17 19 19 16 8 4 5 5 5 6 6 6 6 7 9 8 5 4 5 6 8 9 10 11 10 7 7 9 12 13 12 10 9 10 12 12 10 9 11 12 10 9 9 9 9 13 19 24 20 13 11 10 9 9 9 9 9 10 10 10 10 9 9 8 8 8 8 8 8 8 8 8 8 8 8 8 7 7 7 nan
nan 9 7 7 8 10 14 16 16 14 10 8 6 -1 -4 1 5 6 6 8 9 8 6 5 5 7 9 10 11 12 11 9 7 7 10 11 12 11 10 9 10 10 9 9 10 11 10 10 10 10 10 11 14 21 23 18 12 10 9 9 9 9 9 10 10 11 11 10 9 9 8 9 9 9 9 9 9 9 9 9 9 8 8 7 7 nan
nan 12 10 9 8 9 10 12 15 15 12 9 4 -6 -10 -2 5 7 10 11 10 8 7 6 5 7 10 12 12 12 12 10 9 8 9 10 11 12 12 9 8 9 8 7 7 8 10 11 11 12 14 12 11 13 20 20 14 12 13 12 10 10 10 10 11 12 12 11 10 9 9 9 9 10 10 10 10 10 10 9 8 7 8 8 8 nan
nan 13 14 14 12 10 8 10 16 20 17 10 2 -7 -10 -2 6 10 13 13 10 9 8 7 6 6 8 10 9 11 12 13 11 9 8 8 10 12 12 9 8 8 6 6 7 8 9 11 13 14 15 13 9 8 13 16 13 14 17 18 16 16 13 12 12 14 14 12 11 10 9 9 9 10 11 11 11 11 11 9 6 4 7 9 9 nan
nan 11 12 14 13 12 11 13 16 21 22 15 5 -3 -4 2 7 11 14 13 10 9 9 8 8 8 7 6 7 8 12 16 14 9 6 7 10 13 11 9 8 7 6 7 8 9 11 12 13 14 14 12 10 9 10 10 10 11 13 16 19 22 21 17 16 16 16 13 11 9 8 8 8 9 9 10 11 11 11 10 6 3 5 9 9 nan
nan 9 10 11 11 12 13 13 14 16 19 16 11 7 7 8 10 12 13 13 11 10 10 10 10 10 8 6 7 8 12 18 18 11 4 4 9 13 12 10 8 6 6 9 11 11 11 12 12 12 12 11 11 12 12 10 9 10 11 12 16 24 26 21 19 18 18 16 12 9 7 7 7 7 7 8 9 10 10 9 7 3 3 7 9 nan
nan 9 11 11 11 11 11 12 12 13 13 13 13 13 12 12 12 13 15 14 12 11 10 11 11 11 9 7 8 9 12 18 22 15 3 -0 7 12 13 11 10 7 6 8 10 11 12 13 13 12 11 10 11 12 13 11 10 10 12 12 14 20 23 19 17 17 17 16 14 12 9 6 6 5 5 6 7 8 9 9 7 3 -0 3 7 nan
nan 9 10 10 10 10 10 11 11 11 11 11 11 11 11 11 12 13 15 16 15 14 13 12 12 11 8 5 7 9 12 19 23 16 2 -2 7 12 14 11 10 8 6 6 8 10 12 13 13 12 12 11 11 11 12 11 11 10 12 13 13 15 16 14 13 13 12 11 11 14 12 10 10 9 8 7 7 7 8 9 8 6 -0 -2 2 nan
nan 10 9 9 9 10 10 10 10 10 10 10 10 9 9 9 9 10 13 14 15 16 16 16 16 15 11 7 7 8 13 20 23 14 1 -1 6 11 13 12 10 9 7 6 7 8 11 13 13 12 12 11 10 10 10 11 10 10 11 13 13 12 12 11 11 10 9 8 9 10 10 11 13 13 13 11 9 9 9 9 9 8 5 0 -1 nan
nan 10 8 9 9 10 10 9 8 8 8 8 9 9 9 8 9 9 10 12 13 13 14 16 18 19 18 14 12 11 14 20 21 14 3 1 6 9 12 13 12 10 7 6 7 8 11 13 13 11 9 8 9 10 11 10 10 9 9 10 11 12 12 11 11 10 10 10 9 9 9 11 12 13 15 14 12 11 11 11 11 11 9 6 2 nan
nan 9 9 8 9 10 9 8 8 7 7 8 9 10 10 9 10 10 10 11 12 12 11 11 14 17 22 22 20 19 19 19 19 15 7 4 7 9 12 16 15 11 7 8 8 7 9 11 11 9 7 7 9 12 13 11 9 8 7 8 9 10 11 11 11 10 11 11 10 10 10 11 11 12 15 18 16 16 17 16 15 15 13 12 9 nan
nan 8 8 8 9 9 10 9 9 8 8 9 10 10 10 11 11 11 10 11 11 12 11 10 10 11 17 23 24 24 23 20 17 15 10 7 7 9 12 15 16 12 9 10 9 8 8 9 9 8 7 8 11 14 15 13 10 8 7 7 8 8 9 11 11 10 11 11 11 11 10 10 11 12 13 16 16 17 17 17 18 21 20 20 20 nan
nan 9 9 8 8 8 9 10 10 10 10 11 11 11 10 10 10 10 10 11 11 11 12 12 11 8 10 15 17 18 18 16 14 12 9 8 9 11 13 14 14 12 10 10 11 11 9 9 10 10 9 9 11 12 13 13 12 10 8 7 7 8 9 11 10 10 10 10 10 9 8 9 11 11 11 12 12 12 12 12 14 17 18 19 24 nan
nan 9 11 10 7 8 10 11 11 12 12 12 11 9 8 7 6 7 8 10 9 9 9 11 10 9 8 8 8 9 11 12 11 9 8 10 13 15 15 14 13 12 10 9 11 11 10 10 11 12 10 10 11 12 12 12 12 12 9 6 8 10 11 10 9 9 9 10 10 8 7 8 10 11 10 10 10 10 9 9 11 13 13 13 16 nan
nan 9 11 11 10 10 11 13 14 13 12 10 8 7 6 6 6 6 7 7 7 7 6 5 6 6 6 6 6 6 8 10 10 10 12 15 18 18 16 13 12 12 10 10 10 11 11 11 11 10 9 10 12 13 13 15 15 12 6 4 9 13 16 12 8 8 9 9 10 10 9 8 9 10 10 9 9 9 9 8 9 10 11 13 14 nan
nan 8 9 10 11 12 14 16 15 13 10 8 8 8 8 7 8 8 8 6 7 7 7 6 6 5 5 4 4 5 6 7 8 10 14 17 19 19 17 14 12 12 11 10 10 10 11 12 11 10 9 10 10 11 13 16 15 12 6 6 9 11 14 13 10 11 10 8 9 12 11 7 9 10 11 10 10 11 11 9 8 7 7 9 12 nan
nan 10 10 12 13 14 15 12 10 8 8 8 8 9 9 9 10 10 8 8 9 9 8 8 8 8 6 4 4 3 4 6 8 9 12 15 17 18 17 15 13 12 11 11 9 7 8 10 11 11 11 11 11 12 14 14 13 11 11 9 7 5 8 13 13 13 12 10 9 10 10 10 10 11 11 11 11 12 13 14 13 11 8 8 10 nan
nan 11 12 12 13 13 11 9 9 9 9 9 9 8 10 11 11 9 7 9 11 9 7 7 8 9 8 7 5 5 5 5 6 9 9 12 16 17 15 14 13 13 14 13 10 8 8 8 9 10 11 12 13 13 14 13 12 11 11 10 8 6 8 13 14 12 10 10 9 9 10 10 10 10 10 10 11 12 13 13 13 14 12 11 10 nan
nan 12 12 11 11 11 10 10 10 10 10 10 10 10 10 11 10 8 9 11 10 9 8 8 7 7 8 8 7 7 7 7 7 7 5 4 8 12 15 14 13 13 14 14 13 12 10 9 9 9 11 12 12 13 14 14 13 12 12 9 6 7 11 15 15 12 10 9 8 9 10 11 10 9 8 9 10 11 12 12 12 10 10 9 9 nan
nan 12 11 10 12 12 11 9 9 9 10 11 10 10 10 10 10 11 11 10 9 9 9 8 8 9 10 10 8 7 7 7 7 7 6 4 4 6 11 13 14 14 13 13 14 14 14 13 12 9 9 10 10 11 12 13 13 13 12 10 6 5 9 13 13 13 12 9 8 8 10 10 10 9 8 9 9 10 12 13 12 10 9 8 8 nan
nan 11 10 10 11 11 10 10 10 10 10 10 10 10 10 10 11 11 10 9 9 10 9 8 10 12 13 11 9 9 9 7 6 6 7 8 8 8 9 9 10 12 13 12 12 13 15 15 14 12 11 10 9 8 9 11 13 13 12 11 9 7 7 9 11 13 13 11 10 10 10 9 9 9 9 9 9 10 12 13 13 11 11 10 10 nan
nan 10 9 9 10 10 10 10 10 10 10 9 10 11 11 12 12 8 8 10 10 10 9 8 10 12 12 11 11 12 11 9 7 7 7 7 8 8 9 8 7 7 9 10 10 11 12 13 13 12 12 12 11 10 9 9 10 11 12 12 10 9 8 10 12 13 13 13 12 11 9 8 9 10 10 8 9 10 12 13 13 12 12 12 11 nan
nan 11 10 9 9 9 10 10 10 10 10 10 10 10 13 15 12 5 6 10 10 9 9 10 10 10 10 11 12 12 10 9 8 8 8 7 8 8 8 9 8 7 7 7 7 8 9 11 11 11 9 8 10 12 12 10 9 9 10 11 11 10 10 11 13 14 13 13 12 11 9 9 11 13 12 9 8 8 9 12 13 14 14 14 13 nan
nan 11 10 10 10 10 10 10 10 10 10 10 9 9 10 10 9 8 10 11 10 10 10 11 10 10 10 11 11 11 9 8 9 9 8 8 9 9 9 9 8 8 8 8 8 8 9 10 12 13 11 7 5 7 10 11 10 9 9 9 10 11 11 11 13 14 13 11 11 10 9 9 10 13 13 11 9 8 9 11 12 14 15 16 15 nan
nan nan nan nan nan nan nan nan nan nan nan nan nan nan nan nan nan nan nan nan nan nan nan nan nan nan nan nan nan nan nan nan nan nan nan nan nan nan nan nan nan nan nan nan nan nan nan nan nan nan nan nan nan nan nan nan nan nan nan nan nan nan nan nan nan nan nan nan nan nan nan nan nan nan nan nan nan nan nan nan nan nan nan nan nan nan
CAPE
nan nan nan nan nan nan nan nan nan nan nan nan nan nan nan nan nan nan nan nan nan nan nan nan nan nan nan nan nan nan nan nan nan nan 0 0 nan nan nan nan nan nan nan nan nan nan nan nan nan 0 0 nan 1 1 3 3 3 8 15 15 15 27 40 40 40 35 23 11 4 4 0 nan nan nan nan nan nan nan nan nan nan nan nan nan nan nan
nan nan nan nan nan nan nan nan nan nan nan nan nan nan nan nan nan nan nan nan nan nan nan nan nan nan nan nan nan nan 1 0 0 0 1 1 0 0 0 nan nan nan nan nan nan nan 1 3 3 5 6 10 7 7 10 11 11 13 17 12 12 24 23 23 23 24 14 7 1 1 nan nan nan nan nan nan nan nan nan nan nan nan nan nan nan nan
nan nan nan nan nan nan nan nan nan nan nan nan nan nan nan nan nan nan nan nan nan nan nan nan nan nan nan nan 1 1 2 2 1 1 3 2 1 1 0 0 0 0 nan nan nan 0 3 5 5 6 4 5 2 2 2 1 1 1 nan nan nan nan 1 3 3 4 3 nan nan nan nan nan nan nan nan nan nan nan nan nan nan nan nan nan nan nan
nan nan nan nan nan nan nan nan nan nan nan nan nan nan nan nan nan nan nan nan nan nan nan nan nan nan nan nan 1 1 3 4 3 3 4 3 2 2 1 1 1 0 0 1 1 2 5 6 6 3 1 nan nan nan nan nan nan nan nan nan nan nan nan nan nan nan nan nan nan nan nan nan nan nan nan nan nan nan nan nan nan nan nan nan nan nan
nan nan nan nan nan nan nan nan nan nan nan nan nan nan nan nan nan nan nan nan nan nan nan nan nan nan nan nan 1 1 3 4 4 4 5 5 4 4 2 1 1 1 1 3 3 6 8 5 5 1 nan nan nan nan nan nan nan nan nan nan nan nan nan nan nan nan nan nan nan nan nan nan nan nan nan nan nan nan nan nan nan nan nan nan nan nan
nan nan nan nan nan nan nan nan nan nan nan nan nan nan nan nan nan nan nan nan nan nan nan nan nan nan nan nan 1 1 3 6 5 5 6 7 5 5 3 3 3 2 3 4 4 9 9 5 5 1 nan nan nan nan nan nan nan nan nan nan nan nan nan nan nan nan nan nan nan nan nan nan nan nan nan nan nan nan nan nan nan nan nan nan nan nan
nan nan nan nan nan nan nan nan nan nan nan nan nan nan nan nan nan nan nan nan nan nan nan nan nan nan nan nan 1 1 5 6 6 6 6 7 6 6 4 4 4 3 4 7 7 11 9 6 6 2 nan nan nan nan nan nan nan nan nan nan nan nan nan nan nan nan nan nan nan nan nan nan nan nan nan nan nan nan nan nan nan nan nan nan nan nan
nan nan nan nan nan nan nan nan nan nan nan nan nan nan nan nan nan nan nan nan nan nan nan nan nan nan nan nan nan nan nan nan 0 0 2 7 7 7 7 6 6 5 7 11 11 11 9 6 6 3 1 nan nan nan nan nan nan nan nan nan nan nan nan nan nan nan nan nan nan nan nan nan nan nan nan nan nan nan nan nan nan nan nan nan nan nan
nan nan nan nan nan nan nan nan nan nan nan nan nan nan nan nan nan nan nan nan nan nan nan nan nan nan nan nan nan nan nan nan nan nan nan nan nan nan 6 8 8 6 9 12 12 11 9 6 6 3 0 nan nan nan nan nan nan nan nan nan nan nan nan nan nan nan nan nan nan nan nan nan nan nan nan nan nan nan nan nan nan nan nan nan nan nan
nan nan nan nan nan nan nan nan nan nan nan nan nan nan nan nan nan nan nan nan nan nan nan nan nan nan nan nan nan nan nan nan 6 6 8 nan 5 5 3 3 3 4 11 13 13 12 9 5 5 2 nan nan nan nan nan nan nan nan nan nan nan nan nan nan nan nan nan nan nan nan nan nan nan nan nan nan nan nan nan nan nan nan nan nan nan nan
nan nan nan nan nan nan nan nan nan nan nan nan nan nan nan nan nan nan nan nan nan nan nan nan nan nan nan nan nan nan nan nan nan nan nan 0 3 3 5 3 3 5 12 13 13 9 6 3 3 1 nan nan nan nan nan nan nan nan nan nan nan nan nan nan nan nan nan nan nan nan nan nan nan nan nan nan nan nan nan nan nan nan nan nan nan nan
nan nan nan nan nan nan nan nan nan nan nan nan nan nan nan nan nan nan nan nan nan nan nan nan nan nan nan nan nan nan nan nan nan nan nan nan nan nan nan nan nan 4 7 15 15 7 5 2 2 nan nan nan nan nan nan nan nan nan nan nan nan nan nan nan nan nan nan nan nan nan nan nan nan nan nan nan nan nan nan nan nan nan nan nan nan nan
nan nan nan nan nan nan nan nan nan nan nan nan nan nan nan nan nan nan nan nan nan nan nan nan nan nan nan nan nan nan nan nan nan nan nan nan nan nan nan nan nan nan nan nan nan nan 2 1 1 nan nan nan nan nan nan nan nan nan nan nan nan nan nan nan nan nan nan nan nan nan nan nan nan nan nan nan nan nan nan nan nan nan nan nan nan nan
nan nan nan nan nan nan nan nan nan nan nan nan nan nan nan nan nan nan nan nan nan nan nan nan nan nan nan nan nan nan nan nan nan nan nan nan nan nan nan nan nan nan nan nan nan nan nan nan nan nan nan nan nan nan nan nan nan nan nan nan nan nan nan nan nan nan nan nan nan nan nan nan nan nan nan nan nan nan nan nan nan nan nan nan nan nan
nan nan nan nan nan nan nan nan nan nan nan nan nan nan nan nan nan nan nan nan nan nan nan nan nan nan nan nan nan nan nan nan nan nan nan nan nan nan nan nan nan nan nan nan nan nan nan nan nan nan nan nan nan nan nan nan nan nan nan nan nan nan nan nan nan nan nan nan nan nan nan nan nan nan nan nan nan nan nan nan nan nan nan nan nan nan
nan nan nan nan nan nan nan nan nan nan nan nan nan nan nan nan nan nan nan nan nan nan nan nan nan nan nan nan nan nan nan nan nan nan nan nan nan nan nan nan nan nan nan nan nan nan nan nan nan nan nan nan nan nan nan nan nan nan nan nan nan nan nan nan nan nan nan nan nan nan nan nan nan nan nan nan nan nan nan nan nan nan nan nan nan nan
nan nan nan nan nan nan nan nan nan nan nan nan nan nan nan nan nan nan nan nan nan nan nan nan nan nan nan nan nan nan nan nan nan nan nan nan nan nan nan nan nan nan nan nan nan nan nan nan nan nan nan nan nan nan nan nan nan nan nan nan nan nan nan nan nan nan nan nan nan nan nan nan nan nan nan nan nan nan nan nan nan nan nan nan nan nan
nan nan nan nan nan nan nan nan nan nan nan nan nan nan nan nan nan nan nan nan nan nan nan nan nan nan nan nan nan nan nan nan nan nan nan nan nan nan nan nan nan nan nan nan nan nan nan nan nan nan nan nan nan nan nan nan nan nan nan nan nan nan nan nan nan nan nan nan 0 0 0 nan nan nan nan 0 1 1 0 0 0 0 nan nan nan nan
nan nan nan nan nan nan nan nan nan nan nan nan nan nan nan nan nan nan nan nan nan nan nan nan nan nan nan nan nan nan nan nan nan nan nan nan nan nan nan nan nan nan nan nan nan nan nan nan nan nan nan nan nan nan nan nan nan nan nan nan nan nan nan nan nan nan nan 1 1 1 1 0 0 0 0 1 2 2 2 1 1 0 nan nan nan nan
nan nan nan nan nan nan nan nan nan nan nan nan nan nan nan nan nan nan nan nan nan nan nan nan nan nan nan nan nan nan nan nan nan nan nan nan nan nan nan nan nan nan nan nan nan nan nan nan nan nan nan nan nan nan nan nan nan nan nan nan nan nan nan nan nan nan 1 2 2 2 1 1 1 1 1 2 3 3 3 2 2 1 1 0 0 nan
nan nan nan nan nan nan nan nan nan nan nan nan nan nan nan nan nan nan nan nan nan nan nan nan nan nan nan nan nan nan nan nan nan nan nan nan nan nan nan nan nan nan nan nan nan nan nan nan nan nan nan nan nan nan nan nan nan nan nan nan nan nan nan nan nan nan 2 3 3 3 2 2 2 2 2 3 3 3 3 3 3 2 1 0 0 nan
nan nan nan nan nan nan nan nan nan nan nan nan nan nan nan nan nan nan nan nan nan nan nan nan nan nan nan nan nan nan nan nan nan nan nan nan nan nan nan nan nan nan nan nan nan nan nan nan nan nan nan nan nan nan nan nan nan nan nan nan nan nan nan nan nan 1 2 4 4 4 3 3 3 3 3 3 3 3 3 3 3 2 1 0 0 nan
nan nan nan nan nan nan nan nan nan nan nan nan nan nan nan nan nan nan nan nan nan nan nan nan nan nan nan nan nan nan nan nan nan nan nan nan nan nan nan nan nan nan nan nan nan nan nan nan nan nan nan nan nan nan nan nan nan nan nan nan nan nan nan 0 0 1 3 5 4 4 3 3 3 3 4 4 3 3 3 3 3 2 2 0 0 nan
nan nan nan nan nan nan nan nan nan nan nan nan nan nan nan nan nan nan nan nan nan nan nan nan nan nan nan nan nan nan nan nan nan nan nan nan nan nan nan nan nan nan nan nan nan nan nan nan nan nan nan nan nan nan nan nan nan nan nan nan nan nan nan 0 0 2 4 5 5 5 3 3 3 3 4 3 3 3 3 3 3 2 2 1 1 0
nan nan nan nan nan nan nan nan nan nan nan nan nan nan nan nan nan nan nan nan nan nan nan nan nan nan nan nan nan nan nan nan nan nan nan nan nan nan nan nan nan nan nan nan nan nan nan nan nan nan nan nan nan nan nan nan nan nan nan nan nan nan 0 1 1 3 5 6 5 5 4 3 4 4 4 4 4 4 4 3 3 2 2 1 1 0
nan nan nan nan nan nan nan nan nan nan nan nan nan nan nan nan nan nan nan nan nan nan nan nan nan nan nan nan nan nan nan nan nan nan nan nan nan nan nan nan nan nan nan nan nan nan nan nan nan nan nan nan nan nan nan nan nan nan nan nan nan nan 0 1 1 3 6 7 6 6 5 4 5 5 6 6 5 5 4 3 3 2 2 1 1 0
nan nan nan nan nan nan nan nan nan nan nan nan nan nan nan nan nan nan nan nan nan nan nan nan nan nan nan nan nan nan nan nan nan nan nan nan nan nan nan nan nan nan nan nan nan nan nan nan nan nan nan nan nan nan nan nan nan nan nan nan nan nan 0 1 1 3 6 8 7 7 6 6 6 6 7 8 7 7 7 6 6 4 4 2 2 1
nan nan nan nan nan nan nan nan nan nan nan nan nan nan nan nan nan nan nan nan nan nan nan nan nan nan nan nan nan nan nan nan nan nan nan nan nan nan nan nan nan nan nan nan nan nan nan nan nan nan nan nan nan nan nan nan nan nan nan nan nan nan 0 1 1 4 8 8 9 9 7 7 8 8 8 7 7 7 8 9 9 8 6 3 3 nan
nan nan nan nan nan nan nan 1 1 1 1 1 1 1 nan nan nan nan nan nan nan nan nan nan nan nan nan nan nan nan nan nan nan nan nan nan nan nan nan nan nan nan nan nan nan nan nan nan nan nan nan nan nan nan nan nan nan nan nan nan nan nan nan 1 1 4 9 11 9 9 8 7 6 6 6 6 6 6 7 10 10 10 6 0 0 nan
nan nan nan nan nan nan nan nan 3 3 4 2 2 2 nan nan nan nan nan nan nan nan nan nan nan nan nan nan nan nan nan nan nan nan nan nan nan nan nan nan nan nan nan nan nan nan nan nan nan nan nan nan nan nan nan nan nan nan nan nan nan nan nan 0 0 5 11 12 9 9 7 5 4 4 4 3 4 4 6 8 8 7 2 nan nan nan
nan nan nan nan nan nan nan nan 0 0 8 6 3 3 nan nan nan nan nan nan nan nan nan nan nan nan nan nan nan nan nan nan nan nan nan nan nan nan nan nan nan nan nan nan nan nan nan nan nan nan nan nan nan nan nan nan nan nan nan nan nan nan nan 1 1 7 12 11 8 8 4 2 1 1 1 2 3 3 5 8 8 6 nan nan nan nan
nan nan nan nan nan nan nan nan nan nan nan nan nan nan nan nan nan nan nan nan nan nan nan nan nan nan nan nan nan nan nan nan nan nan nan nan nan nan nan nan nan nan nan nan nan nan nan nan nan nan nan nan nan nan nan nan nan nan nan nan nan nan nan 8 8 7 4 6 3 3 0 nan nan nan nan nan nan nan 1 4 4 5 nan nan nan nan
nan nan nan nan nan nan nan nan nan nan nan nan nan nan nan nan nan nan nan nan nan nan nan nan nan nan nan nan nan nan nan nan nan nan nan nan nan nan nan nan nan nan nan nan nan nan nan nan nan nan nan nan nan nan nan nan nan nan nan nan nan nan nan nan nan nan nan nan nan nan nan nan nan nan nan nan nan nan nan 1 1 4 3 nan nan nan
nan nan nan nan nan nan nan nan nan nan nan nan nan nan nan nan nan nan nan nan nan nan nan nan nan nan nan nan nan nan nan nan nan nan nan nan nan nan nan nan nan nan nan nan nan nan nan nan nan nan nan nan nan nan nan nan nan nan nan nan nan nan nan nan nan nan nan nan nan nan nan nan nan nan nan nan nan nan nan nan nan 1 4 0 0 nan
nan nan nan nan nan nan nan nan nan nan nan nan nan nan nan nan nan nan nan nan nan nan nan nan nan nan nan nan nan nan nan nan nan nan nan nan nan nan nan nan nan nan nan nan nan nan nan nan nan nan nan nan nan nan nan nan nan nan nan nan nan nan nan nan nan nan nan nan nan nan nan nan nan nan nan nan nan nan nan nan nan nan 1 5 5 2
nan nan nan nan nan nan nan nan nan nan nan nan nan nan nan nan nan nan nan nan nan nan nan nan nan nan nan nan nan nan nan nan nan nan nan nan nan nan nan nan nan nan nan nan nan nan nan nan nan nan nan nan nan nan nan nan nan nan nan nan nan nan nan nan nan nan nan nan nan nan nan nan nan nan nan nan nan nan nan nan nan nan nan 2 2 4
nan nan nan nan nan nan nan nan nan nan nan nan nan nan nan nan nan nan nan nan nan nan nan nan nan nan nan nan nan nan nan nan nan nan nan nan nan nan nan nan nan nan nan nan nan nan nan nan nan nan nan nan nan nan nan nan nan nan nan nan nan nan nan nan nan nan nan nan nan nan nan nan nan nan nan nan nan nan nan nan nan nan nan 0 0 3
nan nan nan nan nan nan nan nan nan nan nan nan nan nan nan nan nan nan nan nan nan nan nan nan nan nan nan nan nan nan nan nan nan nan nan nan nan nan nan nan nan nan nan nan nan nan nan nan nan nan nan nan nan nan nan nan nan nan nan nan nan nan nan nan nan nan nan nan nan nan nan nan nan nan nan nan nan nan nan nan nan nan nan nan nan 1
nan nan nan nan nan nan nan nan nan nan nan nan nan nan nan nan nan nan nan nan nan nan nan nan nan nan nan nan nan nan nan nan nan nan nan nan nan nan nan nan nan nan nan nan nan nan nan nan nan nan nan nan nan nan nan nan nan nan nan nan nan nan nan nan nan nan nan nan nan nan nan nan nan nan nan nan nan nan nan nan nan nan nan nan nan nan
nan nan nan nan nan nan nan nan nan nan nan nan nan nan nan nan nan nan nan nan nan nan nan nan nan nan nan nan nan nan nan nan nan nan nan nan nan nan nan nan nan nan nan nan nan nan nan nan nan nan nan nan nan nan nan nan nan nan nan nan nan nan nan nan nan nan nan nan nan nan nan nan nan nan nan nan nan nan nan nan nan nan nan nan nan nan
nan nan nan nan nan nan nan nan nan nan nan nan nan nan nan nan nan nan nan nan nan nan nan nan nan nan nan nan nan nan nan nan nan nan nan nan nan nan nan nan nan nan nan nan nan nan nan nan nan nan nan nan nan nan nan nan nan nan nan nan nan nan nan nan nan nan nan nan nan nan nan nan nan nan nan nan nan nan nan nan nan nan nan nan nan nan
nan nan nan nan nan nan nan nan nan nan nan nan nan nan nan nan nan nan nan nan nan nan nan nan nan nan nan nan nan nan nan nan nan nan nan nan nan nan nan nan nan nan nan nan nan nan nan nan nan nan nan nan nan nan nan nan nan nan nan nan nan nan nan nan nan nan nan nan nan nan nan nan nan nan nan nan nan nan nan nan nan nan nan nan nan nan
nan nan nan nan nan nan nan nan nan nan nan nan nan nan nan nan nan nan nan nan nan nan nan nan nan nan nan nan nan nan nan nan nan nan nan nan nan nan nan nan nan nan nan nan nan nan nan nan nan nan nan nan nan nan nan nan nan nan nan nan nan nan nan nan nan nan nan nan nan nan nan nan nan nan nan nan nan nan nan nan nan nan nan nan nan nan
nan nan nan nan nan nan nan nan nan nan nan nan nan nan nan nan nan nan nan nan nan nan nan nan nan nan nan nan nan nan nan nan nan nan nan nan nan nan nan nan nan nan nan nan nan nan nan nan nan nan nan nan nan nan nan nan nan nan nan nan nan nan nan nan nan nan nan nan nan nan nan nan nan nan nan nan nan nan nan nan nan nan nan nan nan nan
nan nan nan nan nan nan nan nan nan nan nan nan nan nan nan nan nan nan nan nan nan nan nan nan nan nan nan nan nan nan nan nan nan nan nan nan nan nan nan nan nan nan nan nan nan nan nan nan nan nan nan nan nan nan nan nan nan nan nan nan nan nan nan nan nan nan nan nan nan nan nan nan nan nan nan nan nan nan nan nan nan nan nan nan nan nan
nan nan nan nan nan nan nan nan nan nan nan nan nan nan nan nan nan nan nan nan nan nan nan nan nan nan nan nan nan nan nan nan nan nan nan nan nan nan nan nan nan nan nan nan nan nan nan nan nan nan nan nan nan nan nan nan nan nan nan nan nan nan nan nan nan nan nan nan nan nan nan nan nan nan nan nan nan nan nan nan nan nan nan nan nan nan
nan nan nan nan nan nan nan nan nan nan nan nan nan nan nan nan nan nan nan nan nan nan nan nan nan nan nan nan nan nan nan nan nan nan nan nan nan nan nan nan nan nan nan nan nan nan nan nan nan nan nan nan nan nan nan nan nan nan nan nan nan nan nan nan nan nan nan nan nan nan nan nan nan nan nan nan nan nan nan nan nan nan nan nan nan nan
nan nan nan nan nan nan nan nan nan nan nan nan nan nan nan nan nan nan nan nan nan nan nan nan nan nan nan nan nan nan nan nan nan nan nan nan nan nan nan nan nan nan nan nan nan nan nan nan nan nan nan nan nan nan nan nan nan nan nan nan nan nan nan nan nan nan nan nan nan nan nan nan nan nan nan nan nan nan nan nan nan nan nan nan nan nan
nan nan nan nan nan nan nan nan nan nan nan nan nan nan nan nan nan nan nan nan nan nan nan nan nan nan nan nan nan nan nan nan nan nan nan nan nan nan nan nan nan nan nan nan nan nan nan nan nan nan nan nan nan nan nan nan nan nan nan nan nan nan nan nan nan nan nan nan nan nan nan nan nan nan nan nan nan nan nan nan nan nan nan nan nan nan
nan nan nan nan nan nan nan nan nan nan nan nan nan nan nan nan nan nan nan nan nan nan nan nan nan nan nan nan nan nan nan nan nan nan nan nan nan nan nan nan nan nan nan nan nan nan nan nan nan nan nan nan nan nan nan nan nan nan nan nan nan nan nan nan nan nan nan nan nan nan nan nan nan nan nan nan nan nan nan nan nan nan nan nan nan nan
nan nan nan nan nan nan nan nan nan nan nan nan nan nan nan nan nan nan nan nan nan nan nan nan nan nan nan nan nan nan nan nan nan nan nan nan nan nan nan nan nan nan nan nan nan nan nan nan nan nan nan nan nan nan nan nan nan nan nan nan nan nan nan nan nan nan nan nan nan nan nan nan nan nan nan nan nan nan nan nan nan nan nan nan nan nan